sat.trackr.live / text

‹ back to catalog

STARLINK-36441

NORAD 67469 · 2026-008AA

PAYLOAD ACTIVE UNKNOWN

§ Identity

Operator
Country
US
Launch date
2026-01-14
Launch site
AFETR
Launch vehicle
Mass (kg)
RCS (m²)

Purposes: comms

External: N2YO · Heavens-Above · Gunter

§ Orbital elements

Epoch: 2026-09-19T22:05:09.395232Z

Period
94.27 min
Inclination
43.0014°
Eccentricity
0.0001405
Mean motion
15.27576140 rev/d
Perigee alt
482.1 km
Apogee alt
484.0 km
Semi-major
6,861.2 km
B*
2.1396e-4
RAAN
188.6170°
Arg perigee
251.6737°
Mean anomaly
108.3962°
Rev number
3,927

§ Raw data

STARLINK-364411 67469U 26008AA  26262.92024763  .00005629  00000+0  21396-3 0  99942 67469  43.0014 188.6170 0001405 251.6737 108.3962 15.27576140 39276

JSON: /api/v1/satellites/67469 · /tle

For live sub-satellite position, see the globe view (requires WebGL).

§ Visibility from observer

Set your observer location to see the next 7 days of passes ≥ 10°. The values pass through the URL so the page stays shareable.

No JS? Fill the form by hand. The geolocation button needs JavaScript.